Miscellaneous Local Product
Issued by NWS Hastings, NE

Home | Current Version | Previous Version | Text Only | Print | Product List | Glossary Off
Versions: 1 2 3 4 5 6 7 8 9 10 11 12 13 14 15 16 17 18 19 20 21 22 23 24 25 26 27 28 29 30 31 32 33 34 35 36 37 38 39 40 41 42 43 44 45 46 47 48 49 50

000
AXUS43 KGID 280002
MISGRI

GID CWA HOURLY WEATHER ROUNDUP
NATIONAL WEATHER SERVICE HASTINGS NE
600 PM CST THU NOV 27 2014

NOTE: "FAIR" INDICATES FEW OR NO CLOUDS BELOW 12,000 FEET WITH NO
SIGNIFICANT WEATHER AND/OR OBSTRUCTIONS TO VISIBILITY.

...SOUTH CENTRAL NEBRASKA...

CITY           SKY/WX    TMP DP  RH WIND       PRES   REMARKS
GRAND ISLAND   CLEAR     33  17  51 SE13      30.14F WCI  24
HASTINGS       CLEAR     34  16  47 SE14      30.13F WCI  25
KEARNEY        CLEAR     34  18  51 SE13      30.11F WCI  25
ORD            CLEAR     33  19  56 SE9       30.10S WCI  25
YORK           CLEAR     28  18  64 SE7       30.20S WCI  21
AURORA         CLEAR     33  17  51 S9        30.17F WCI  26
LEXINGTON      CLEAR     40  23  50 SE10      30.06F WCI  33
HOLDREGE       CLEAR     40  20  46 S10       30.08F WCI  33
HEBRON         CLEAR     33  14  44 SE7       30.22S WCI  27

...NEBRASKA PANHANDLE...

CITY           SKY/WX    TMP DP  RH WIND       PRES   REMARKS
CHADRON        PTCLDY   N/A N/A N/A SW3       29.93R
ALLIANCE       CLEAR     41  27  57 W10       29.96S
SCOTTSBLUFF    CLEAR     51  29  42 W13       29.98S
SIDNEY         PTCLDY    41  29  62 W10       30.04S

...WESTERN AND NORTH CENTRAL NEBRASKA...

CITY           SKY/WX    TMP DP  RH WIND       PRES   REMARKS
VALENTINE      CLEAR     40  25  55 CALM      29.95F
AINSWORTH      PTCLDY    37  22  54 S15       29.97F WCI  28
ONEILL         MOCLDY    32  19  57 SE16      30.08F WCI  21
BROKEN BOW     PTCLDY    38  21  50 SE9       30.05F WCI  31
IMPERIAL       MOCLDY    49  28  44 S5        30.02F
NORTH PLATTE   CLEAR     33  21  61 E8        30.02S WCI  26
MCCOOK         PTCLDY    47  25  42 SE7       30.04F

...EASTERN NEBRASKA...

CITY           SKY/WX    TMP DP  RH WIND       PRES   REMARKS
NORFOLK        PTCLDY    24  15  68 SE14      30.18F WCI  12
SO SIOUX CITY  MOCLDY    19   8  62 SE15      30.29S WCI   5
TEKAMAH        MOCLDY    20   7  57 SE12      30.32S WCI   8
COLUMBUS       CLEAR     27  12  54 SE12      30.22F WCI  16
ALBION         CLEAR     31  16  54 SE12G20   30.15F WCI  21
OMAHA EPPLEY   MOCLDY    22  11  62 SE14      30.32F WCI   9
OFFUTT AFB     PTCLDY    22  12  65 SE9       30.31F WCI  12
MILLARD        PTCLDY    24  12  61 SE8       30.31S WCI  15
LINCOLN        CLEAR     28  15  58 SE8       30.27F WCI  20
NEBRASKA CITY  CLEAR     26  11  52 SE12      30.31F WCI  16
BEATRICE       PTCLDY    35  17  49 SE7       30.25F WCI  29
FALLS CITY     MOCLDY    29  17  61 SE12      30.32S WCI  19

...NORTHERN KANSAS...

CITY           SKY/WX    TMP DP  RH WIND       PRES   REMARKS
GOODLAND       CLOUDY    53  26  35 SW14      30.07R
HILL CITY      PTCLDY    42  22  44 SE6       30.10F
NORTON         CLEAR     43  18  36 SE9       30.06F
PHILLIPSBURG   CLEAR     43  21  42 SE9       30.12F
SMITH CENTER   CLEAR     37  19  48 SE14      30.16S WCI  29
BELOIT         CLEAR     37  18  44 SE8       30.20R WCI  31
HAYS           MOCLDY    43  19  39 S10       30.15F
RUSSELL        MOCLDY    40  22  48 SE15      30.15F WCI  32
CONCORDIA      CLEAR     35  16  45 S9        30.22S WCI  28
SALINA         PTCLDY    38  18  44 SE8       30.24F WCI  32
TOPEKA         MOCLDY    34  21  59 SE8       30.34S WCI  27



USA.gov is the U.S. government's official web portal to all federal, state and local government web resources and services.